Time,TemperatureF,DewpointF,PressureIn,WindDirection,WindDirectionDegrees,WindSpeedMPH,WindSpeedGustMPH,Humidity,HourlyPrecipIn,Conditions,Clouds,dailyrainin,SoftwareType,DateUTC
2013-05-23 00:02:00,67.0,59.0,29.83,NNW,336,3.0,9.0,76,0.00,,,0.00,,2013-05-23 05:02:00,
2013-05-23 00:32:00,65.0,58.0,29.85,NW,326,0.0,7.0,77,0.00,,,0.00,,2013-05-23 05:32:00,
2013-05-23 00:43:00,64.0,57.0,29.85,NNW,338,0.0,5.0,78,0.00,,,0.00,,2013-05-23 05:43:00,
2013-05-23 00:52:00,64.0,57.0,29.85,NNW,338,0.0,5.0,78,0.00,,,0.00,,2013-05-23 05:52:00,
2013-05-23 01:02:00,64.0,57.0,29.85,WNW,286,0.0,5.0,78,0.00,,,0.00,,2013-05-23 06:02:00,
2013-05-23 01:12:00,64.0,57.0,29.85,WNW,286,0.0,5.0,78,0.00,,,0.00,,2013-05-23 06:12:00,
2013-05-23 01:21:00,64.0,57.0,29.85,WNW,284,0.0,4.0,79,0.00,,,0.00,,2013-05-23 06:21:00,
2013-05-23 01:32:00,63.0,57.0,29.85,WNW,283,0.0,0.0,80,0.00,,,0.00,,2013-05-23 06:32:00,
2013-05-23 01:42:00,63.0,57.0,29.85,WNW,283,0.0,0.0,80,0.00,,,0.00,,2013-05-23 06:42:00,
2013-05-23 01:52:00,63.0,57.0,29.85,WNW,282,1.0,4.0,81,0.00,,,0.00,,2013-05-23 06:52:00,
2013-05-23 02:02:00,62.0,56.0,29.86,WNW,284,0.0,5.0,80,0.00,,,0.00,,2013-05-23 07:02:00,
2013-05-23 02:11:00,62.0,56.0,29.86,WNW,284,0.0,5.0,80,0.00,,,0.00,,2013-05-23 07:11:00,
2013-05-23 02:21:00,62.0,56.0,29.86,WNW,294,0.0,2.0,81,0.00,,,0.00,,2013-05-23 07:21:00,
2013-05-23 02:32:00,61.0,55.0,29.86,WNW,294,0.0,1.0,82,0.00,,,0.00,,2013-05-23 07:32:00,
2013-05-23 02:42:00,61.0,55.0,29.86,WNW,294,0.0,1.0,82,0.00,,,0.00,,2013-05-23 07:42:00,
2013-05-23 02:59:00,61.0,55.0,29.86,WNW,294,0.0,2.0,82,0.00,,,0.00,,2013-05-23 07:59:00,
2013-05-23 03:11:00,61.0,56.0,29.86,WNW,294,0.0,2.0,83,0.00,,,0.00,,2013-05-23 08:11:00,
2013-05-23 03:22:00,60.0,55.0,29.86,WNW,294,0.0,1.0,83,0.00,,,0.00,,2013-05-23 08:22:00,
2013-05-23 03:31:00,60.0,55.0,29.86,WNW,294,0.0,2.0,84,0.00,,,0.00,,2013-05-23 08:31:00,
2013-05-23 03:42:00,60.0,55.0,29.86,WNW,294,0.0,2.0,84,0.00,,,0.00,,2013-05-23 08:42:00,
2013-05-23 03:51:00,60.0,55.0,29.87,WNW,294,0.0,2.0,84,0.00,,,0.00,,2013-05-23 08:51:00,
2013-05-23 04:01:00,59.0,55.0,29.87,WNW,294,0.0,1.0,86,0.00,,,0.00,,2013-05-23 09:01:00,
2013-05-23 04:11:00,59.0,55.0,29.87,WNW,294,0.0,1.0,86,0.00,,,0.00,,2013-05-23 09:11:00,
2013-05-23 04:21:00,58.0,54.0,29.88,WNW,294,0.0,0.0,88,0.00,,,0.00,,2013-05-23 09:21:00,
2013-05-23 04:33:00,57.0,54.0,29.88,WNW,294,0.0,1.0,89,0.00,,,0.00,,2013-05-23 09:33:00,
2013-05-23 04:42:00,57.0,54.0,29.88,WNW,294,0.0,1.0,89,0.00,,,0.00,,2013-05-23 09:42:00,
2013-05-23 04:53:00,57.0,54.0,29.88,WNW,294,0.0,1.0,90,0.00,,,0.00,,2013-05-23 09:53:00,
2013-05-23 05:02:00,57.0,54.0,29.88,WNW,294,0.0,1.0,91,0.00,,,0.00,,2013-05-23 10:02:00,
2013-05-23 05:12:00,57.0,54.0,29.88,WNW,294,0.0,1.0,91,0.00,,,0.00,,2013-05-23 10:12:00,
2013-05-23 05:22:00,56.0,54.0,29.88,WNW,294,0.0,1.0,92,0.00,,,0.00,,2013-05-23 10:22:00,
2013-05-23 05:32:00,56.0,54.0,29.89,WNW,294,0.0,1.0,92,0.00,,,0.00,,2013-05-23 10:32:00,
2013-05-23 05:42:00,56.0,54.0,29.89,WNW,294,0.0,1.0,92,0.00,,,0.00,,2013-05-23 10:42:00,
2013-05-23 05:52:00,56.0,54.0,29.89,NW,322,0.0,1.0,93,0.00,,,0.00,,2013-05-23 10:52:00,
2013-05-23 06:02:00,57.0,55.0,29.90,South,183,0.0,2.0,94,0.00,,,0.00,,2013-05-23 11:02:00,
2013-05-23 06:11:00,57.0,55.0,29.90,South,183,0.0,2.0,94,0.00,,,0.00,,2013-05-23 11:11:00,
2013-05-23 06:22:00,57.0,55.0,29.90,South,183,0.0,1.0,94,0.00,,,0.00,,2013-05-23 11:22:00,
2013-05-23 06:32:00,58.0,56.0,29.91,South,183,0.0,0.0,94,0.00,,,0.00,,2013-05-23 11:32:00,
2013-05-23 06:42:00,58.0,56.0,29.91,South,183,0.0,0.0,94,0.00,,,0.00,,2013-05-23 11:42:00,
2013-05-23 06:52:00,58.0,56.0,29.91,SW,217,2.0,5.0,93,0.00,,,0.00,,2013-05-23 11:52:00,
2013-05-23 07:01:00,59.0,56.0,29.91,WSW,248,2.0,6.0,90,0.00,,,0.00,,2013-05-23 12:01:00,
2013-05-23 07:12:00,59.0,56.0,29.91,WSW,248,2.0,6.0,90,0.00,,,0.00,,2013-05-23 12:12:00,
2013-05-23 07:21:00,60.0,56.0,29.92,WSW,252,2.0,5.0,88,0.00,,,0.00,,2013-05-23 12:21:00,
2013-05-23 07:32:00,60.0,56.0,29.92,SW,236,4.0,6.0,87,0.00,,,0.00,,2013-05-23 12:32:00,
2013-05-23 07:42:00,60.0,56.0,29.92,SW,236,4.0,6.0,87,0.00,,,0.00,,2013-05-23 12:42:00,
2013-05-23 07:52:00,61.0,57.0,29.92,SW,229,1.0,7.0,86,0.00,,,0.00,,2013-05-23 12:52:00,
2013-05-23 08:01:00,61.0,56.0,29.92,West,277,0.0,7.0,85,0.00,,,0.00,,2013-05-23 13:01:00,
2013-05-23 08:11:00,61.0,56.0,29.92,West,277,0.0,7.0,85,0.00,,,0.00,,2013-05-23 13:11:00,
2013-05-23 08:22:00,62.0,57.0,29.93,WNW,284,1.0,5.0,85,0.00,,,0.00,,2013-05-23 13:22:00,
2013-05-23 08:32:00,62.0,57.0,29.93,West,279,2.0,6.0,84,0.00,,,0.00,,2013-05-23 13:32:00,
2013-05-23 08:42:00,62.0,57.0,29.93,West,279,2.0,6.0,84,0.00,,,0.00,,2013-05-23 13:42:00,
2013-05-23 08:52:00,63.0,57.0,29.93,West,281,3.0,8.0,82,0.00,,,0.00,,2013-05-23 13:52:00,
2013-05-23 09:02:00,63.0,57.0,29.93,West,268,3.0,6.0,81,0.00,,,0.00,,2013-05-23 14:02:00,
2013-05-23 09:11:00,63.0,57.0,29.93,West,268,3.0,6.0,81,0.00,,,0.00,,2013-05-23 14:11:00,
2013-05-23 09:21:00,63.0,57.0,29.94,NNW,329,3.0,9.0,80,0.00,,,0.00,,2013-05-23 14:21:00,
2013-05-23 09:32:00,63.0,56.0,29.94,NW,309,2.0,10.0,79,0.00,,,0.00,,2013-05-23 14:32:00,
2013-05-23 09:42:00,63.0,56.0,29.94,NW,309,2.0,10.0,79,0.00,,,0.00,,2013-05-23 14:42:00,
2013-05-23 09:52:00,63.0,56.0,29.94,WNW,283,1.0,9.0,78,0.00,,,0.00,,2013-05-23 14:52:00,
2013-05-23 10:01:00,63.0,56.0,29.95,West,269,1.0,8.0,78,0.00,,,0.00,,2013-05-23 15:01:00,
2013-05-23 10:11:00,63.0,56.0,29.95,West,269,1.0,8.0,78,0.00,,,0.00,,2013-05-23 15:11:00,
2013-05-23 10:21:00,63.0,56.0,29.95,NNW,336,3.0,9.0,78,0.00,,,0.00,,2013-05-23 15:21:00,
2013-05-23 10:32:00,63.0,55.0,29.96,NNW,335,6.0,9.0,76,0.00,,,0.00,,2013-05-23 15:32:00,
2013-05-23 10:42:00,63.0,55.0,29.96,NNW,335,6.0,9.0,76,0.00,,,0.00,,2013-05-23 15:42:00,
2013-05-23 10:53:00,63.0,56.0,29.96,West,281,3.0,7.0,78,0.00,,,0.00,,2013-05-23 15:53:00,
2013-05-23 11:03:00,63.0,56.0,29.96,West,279,3.0,7.0,77,0.00,,,0.00,,2013-05-23 16:03:00,
2013-05-23 11:12:00,63.0,56.0,29.96,West,279,3.0,7.0,77,0.00,,,0.00,,2013-05-23 16:12:00,
2013-05-23 11:23:00,64.0,56.0,29.96,West,277,2.0,9.0,75,0.00,,,0.00,,2013-05-23 16:23:00,
2013-05-23 11:33:00,64.0,56.0,29.96,WNW,283,4.0,12.0,74,0.00,,,0.00,,2013-05-23 16:33:00,
2013-05-23 11:42:00,64.0,56.0,29.96,WNW,283,4.0,12.0,74,0.00,,,0.00,,2013-05-23 16:42:00,
2013-05-23 11:52:00,63.0,55.0,29.96,NW,307,5.0,11.0,74,0.00,,,0.00,,2013-05-23 16:52:00,
2013-05-23 12:03:00,65.0,56.0,29.96,West,263,4.0,12.0,73,0.00,,,0.00,,2013-05-23 17:03:00,
2013-05-23 12:11:00,65.0,56.0,29.96,West,263,4.0,12.0,73,0.00,,,0.00,,2013-05-23 17:11:00,
2013-05-23 12:23:00,65.0,55.0,29.97,NNW,343,5.0,11.0,71,0.00,,,0.00,,2013-05-23 17:23:00,
2013-05-23 12:33:00,66.0,56.0,29.98,NNW,343,4.0,11.0,71,0.00,,,0.00,,2013-05-23 17:33:00,
2013-05-23 12:43:00,66.0,56.0,29.98,NNW,343,4.0,11.0,71,0.00,,,0.00,,2013-05-23 17:43:00,
2013-05-23 12:52:00,65.0,55.0,29.98,NNW,338,4.0,13.0,71,0.00,,,0.00,,2013-05-23 17:52:00,
2013-05-23 13:01:00,65.0,56.0,29.99,WNW,290,5.0,14.0,72,0.00,,,0.00,,2013-05-23 18:01:00,
2013-05-23 13:11:00,65.0,56.0,29.99,WNW,290,5.0,14.0,72,0.00,,,0.00,,2013-05-23 18:11:00,
2013-05-23 13:22:00,65.0,56.0,30.00,West,272,6.0,12.0,72,0.00,,,0.00,,2013-05-23 18:22:00,
2013-05-23 13:32:00,65.0,56.0,30.00,West,275,6.0,11.0,73,0.00,,,0.00,,2013-05-23 18:32:00,
2013-05-23 13:42:00,65.0,56.0,30.00,West,275,6.0,11.0,73,0.00,,,0.00,,2013-05-23 18:42:00,
2013-05-23 13:52:00,63.0,55.0,30.01,WNW,296,5.0,12.0,75,0.00,,,0.00,,2013-05-23 18:52:00,
2013-05-23 14:01:00,63.0,55.0,30.01,North,355,6.0,12.0,76,0.00,,,0.00,,2013-05-23 19:01:00,
2013-05-23 14:11:00,63.0,55.0,30.01,North,355,6.0,12.0,76,0.00,,,0.00,,2013-05-23 19:11:00,
2013-05-23 14:21:00,62.0,55.0,30.02,NW,306,8.0,14.0,77,0.00,,,0.00,,2013-05-23 19:21:00,
2013-05-23 14:32:00,63.0,56.0,30.02,West,277,5.0,12.0,78,0.00,,,0.00,,2013-05-23 19:32:00,
2013-05-23 14:42:00,63.0,56.0,30.02,West,277,5.0,12.0,78,0.00,,,0.00,,2013-05-23 19:42:00,
2013-05-23 14:52:00,63.0,56.0,30.03,NW,323,5.0,14.0,79,0.00,,,0.00,,2013-05-23 19:52:00,
2013-05-23 15:02:00,63.0,57.0,30.03,WNW,291,3.0,9.0,80,0.00,,,0.00,,2013-05-23 20:02:00,
2013-05-23 15:11:00,63.0,57.0,30.03,WNW,291,3.0,9.0,80,0.00,,,0.00,,2013-05-23 20:11:00,
2013-05-23 15:21:00,63.0,57.0,30.03,WNW,289,4.0,9.0,81,0.00,,,0.00,,2013-05-23 20:21:00,
2013-05-23 15:32:00,62.0,57.0,30.03,WNW,285,6.0,12.0,83,0.00,,,0.00,,2013-05-23 20:32:00,
2013-05-23 15:42:00,62.0,57.0,30.03,WNW,285,6.0,12.0,83,0.00,,,0.00,,2013-05-23 20:42:00,
2013-05-23 15:51:00,63.0,57.0,30.03,WNW,286,4.0,11.0,82,0.00,,,0.00,,2013-05-23 20:51:00,
2013-05-23 16:01:00,64.0,57.0,30.03,WNW,288,5.0,9.0,79,0.00,,,0.00,,2013-05-23 21:01:00,
2013-05-23 16:11:00,64.0,57.0,30.03,WNW,288,5.0,9.0,79,0.00,,,0.00,,2013-05-23 21:11:00,
2013-05-23 16:21:00,64.0,57.0,30.03,WNW,300,2.0,11.0,79,0.00,,,0.00,,2013-05-23 21:21:00,
2013-05-23 16:32:00,64.0,58.0,30.03,NW,313,5.0,11.0,82,0.00,,,0.00,,2013-05-23 21:32:00,
2013-05-23 16:43:00,64.0,58.0,30.03,NW,313,5.0,11.0,82,0.00,,,0.00,,2013-05-23 21:43:00,
2013-05-23 16:53:00,62.0,59.0,30.04,NW,315,3.0,13.0,89,0.00,,,0.00,,2013-05-23 21:53:00,
2013-05-23 17:03:00,62.0,58.0,30.04,West,271,4.0,11.0,88,0.00,,,0.00,,2013-05-23 22:03:00,
2013-05-23 17:12:00,62.0,58.0,30.04,West,271,4.0,11.0,88,0.00,,,0.00,,2013-05-23 22:12:00,
2013-05-23 17:22:00,60.0,56.0,30.06,NNE,19,10.0,18.0,88,0.00,,,0.00,,2013-05-23 22:22:00,
2013-05-23 17:33:00,59.0,56.0,30.06,NNW,345,12.0,16.0,90,0.00,,,0.00,,2013-05-23 22:33:00,
2013-05-23 17:42:00,59.0,56.0,30.06,NNW,345,12.0,16.0,90,0.00,,,0.00,,2013-05-23 22:42:00,
2013-05-23 17:52:00,59.0,56.0,30.07,NNW,329,10.0,18.0,89,0.00,,,0.00,,2013-05-23 22:52:00,
2013-05-23 18:01:00,58.0,54.0,30.08,North,355,14.0,20.0,87,0.00,,,0.00,,2013-05-23 23:01:00,
2013-05-23 18:11:00,58.0,54.0,30.08,North,355,14.0,20.0,87,0.00,,,0.00,,2013-05-23 23:11:00,
2013-05-23 18:21:00,58.0,54.0,30.09,NNW,333,10.0,18.0,87,0.00,,,0.00,,2013-05-23 23:21:00,
2013-05-23 18:32:00,58.0,53.0,30.09,North,5,14.0,22.0,82,0.00,,,0.00,,2013-05-23 23:32:00,
2013-05-23 18:42:00,58.0,53.0,30.09,North,5,14.0,22.0,82,0.00,,,0.00,,2013-05-23 23:42:00,
2013-05-23 18:52:00,58.0,52.0,30.09,NNE,22,11.0,19.0,81,0.00,,,0.00,,2013-05-23 23:52:00,
2013-05-23 19:01:00,58.0,52.0,30.10,NNW,343,12.0,18.0,81,0.00,,,0.00,,2013-05-24 00:01:00,
2013-05-23 19:12:00,58.0,52.0,30.10,NNW,343,12.0,18.0,81,0.00,,,0.00,,2013-05-24 00:12:00,
2013-05-23 19:21:00,58.0,52.0,30.11,North,5,11.0,20.0,80,0.00,,,0.00,,2013-05-24 00:21:00,
2013-05-23 19:32:00,57.0,51.0,30.12,NW,317,10.0,22.0,80,0.00,,,0.00,,2013-05-24 00:32:00,
2013-05-23 19:42:00,57.0,51.0,30.12,NW,317,10.0,22.0,80,0.00,,,0.00,,2013-05-24 00:42:00,
2013-05-23 19:52:00,57.0,51.0,30.12,North,355,11.0,21.0,79,0.00,,,0.00,,2013-05-24 00:52:00,
2013-05-23 20:01:00,56.0,50.0,30.13,North,360,12.0,19.0,79,0.00,,,0.00,,2013-05-24 01:01:00,
2013-05-23 20:12:00,56.0,50.0,30.13,North,360,12.0,19.0,79,0.00,,,0.00,,2013-05-24 01:12:00,
2013-05-23 20:22:00,56.0,49.0,30.14,NNW,342,11.0,20.0,77,0.00,,,0.00,,2013-05-24 01:22:00,
2013-05-23 20:32:00,55.0,48.0,30.14,NNW,329,8.0,19.0,78,0.00,,,0.00,,2013-05-24 01:32:00,
2013-05-23 20:42:00,55.0,48.0,30.14,NNW,329,8.0,19.0,78,0.00,,,0.00,,2013-05-24 01:42:00,
2013-05-23 20:52:00,55.0,48.0,30.15,NNW,344,10.0,16.0,78,0.00,,,0.00,,2013-05-24 01:52:00,
2013-05-23 21:01:00,55.0,48.0,30.15,North,10,13.0,20.0,77,0.00,,,0.00,,2013-05-24 02:01:00,
2013-05-23 21:11:00,55.0,48.0,30.15,North,10,13.0,20.0,77,0.00,,,0.00,,2013-05-24 02:11:00,
2013-05-23 21:21:00,55.0,48.0,30.16,North,10,11.0,16.0,78,0.00,,,0.00,,2013-05-24 02:21:00,
2013-05-23 21:32:00,55.0,48.0,30.17,NNE,13,14.0,23.0,76,0.00,,,0.00,,2013-05-24 02:32:00,
2013-05-23 21:42:00,55.0,48.0,30.17,NNE,13,14.0,23.0,76,0.00,,,0.00,,2013-05-24 02:42:00,
2013-05-23 21:52:00,55.0,48.0,30.17,NNE,13,14.0,23.0,76,0.00,,,0.00,,2013-05-24 02:52:00,
2013-05-23 22:02:00,53.0,46.0,30.19,North,5,16.0,24.0,77,0.00,,,0.00,,2013-05-24 03:02:00,
2013-05-23 22:11:00,53.0,46.0,30.19,North,5,16.0,24.0,77,0.00,,,0.00,,2013-05-24 03:11:00,
2013-05-23 22:21:00,53.0,46.0,30.20,North,9,15.0,22.0,77,0.00,,,0.00,,2013-05-24 03:21:00,
2013-05-23 22:33:00,53.0,46.0,30.20,NNE,22,14.0,23.0,78,0.00,,,0.00,,2013-05-24 03:33:00,
2013-05-23 22:42:00,53.0,46.0,30.20,NNE,22,14.0,23.0,78,0.00,,,0.00,,2013-05-24 03:42:00,
2013-05-23 22:53:00,52.0,45.0,30.21,NE,41,16.0,24.0,78,0.00,,,0.00,,2013-05-24 03:53:00,
2013-05-23 23:03:00,51.0,44.0,30.22,NE,46,15.0,22.0,78,0.00,,,0.00,,2013-05-24 04:03:00,
2013-05-23 23:12:00,51.0,44.0,30.22,NE,46,15.0,22.0,78,0.00,,,0.00,,2013-05-24 04:12:00,
2013-05-23 23:22:00,51.0,45.0,30.22,North,5,10.0,15.0,79,0.00,,,0.00,,2013-05-24 04:22:00,
2013-05-23 23:33:00,51.0,45.0,30.22,North,355,9.0,14.0,80,0.00,,,0.00,,2013-05-24 04:33:00,
2013-05-23 23:42:00,51.0,45.0,30.22,North,355,9.0,14.0,80,0.00,,,0.00,,2013-05-24 04:42:00,
2013-05-23 23:52:00,50.0,44.0,30.22,NNW,336,8.0,13.0,81,0.00,,,0.00,,2013-05-24 04:52:00,